Regional Weather Roundup
Issued by NWS Northern Indiana

Home | Current Version | Previous Version | Graphics & Text | Print | Product List | Glossary On
Versions: 1 2 3 4 5 6 7 8 9 10 11 12 13 14 15 16 17 18 19 20 21 22 23 24 25 26 27 28 29 30 31 32 33 34 35 36 37 38 39 40 41 42 43 44 45 46 47 48 49 50
000
ASUS43 KIWX 300310
RWRIWX

KIWX WEATHER ROUNDUP
NATIONAL WEATHER SERVICE NORTHERN INDIANA
1100 PM EDT WED MAR 29 2017

NOTE: "FAIR" INDICATES FEW OR NO CLOUDS BELOW 12,000 FEET WITH NO
SIGNIFICANT WEATHER AND/OR OBSTRUCTIONS TO VISIBILITY.

* THESE STATIONS ARE NOT UNDER NWS QUALITY CONTROL. THEY ALSO MAY NOT
  REPORT WEATHER SUCH AS PRECIPITATION OR FOG.

INZ001>027-300400-
NORTHERN INDIANA

CITY           SKY/WX    TMP DP  RH WIND       PRES   REMARKS
GARY*          LGT RAIN  46  37  71 NE9       30.09R
VALPARAISO     CLOUDY    48  36  63 E15       30.05F
MICHIGAN CITY* CLOUDY    46  36  66 NE7       30.07F
LAPORTE*       CLOUDY    46  36  69 E14G21    30.05F
KNOX*          CLOUDY    46  10  23 E20       30.05F
SOUTH BEND     LGT RAIN  47  35  63 E9        30.09F
GOSHEN         CLOUDY    49  31  49 E12       30.10R
MONTICELLO*    CLOUDY    49  38  64 E10G16    30.01F
LOGANSPORT*    LGT RAIN  46  37  71 E14       30.04R
ROCHESTER*     LGT RAIN  48  36  61 E13G24    30.07R
WARSAW*        LGT RAIN  45  32  61 E13       30.09S
ANGOLA*        CLOUDY    46  32  57 E14       30.11F
FORT WAYNE     CLOUDY    47  33  58 E17G30    30.07F
HUNTINGTON*    CLOUDY    46  33  59 E9        30.08R
PERU/GRISSOM   MOCLDY    46  39  76 E17       30.00F
MARION*        CLOUDY    49  37  64 E13G22    30.03F

$$
INZ028>050-300400-
CENTRAL INDIANA

CITY           SKY/WX    TMP DP  RH WIND       PRES   REMARKS
LAFAYETTE      LGT RAIN  52  42  69 E18G24    29.98S
KOKOMO*        CLOUDY    49  40  71 E15       30.02F
MUNCIE*        MOCLDY    50  40  68 E13       30.03F
INDIANAPOLIS   CLOUDY    55  43  63 E18       29.98F

$$
MIZ043>046-050>051-056>058-064>065-071>073-077>080-300400-
SOUTHWEST LOWER MICHIGAN

CITY           SKY/WX    TMP DP  RH WIND       PRES   REMARKS
BATTLE CREEK   LGT RAIN  45  39  79 NE13      30.16F
BENTON HARBOR  CLOUDY    48  37  65 E9        30.10F
COLDWATER*     CLOUDY    47  34  61 E13       30.14F
HILLSDALE*     CLOUDY    43  34  70 E9        30.15F
HOLLAND        LGT RAIN  43  35  73 E10       30.17F
GRAND RAPIDS   LGT RAIN  40  35  83 E12       30.20F
KALAMAZOO      LGT RAIN  46  37  71 E8        30.14F
STURGIS*       CLOUDY    45  36  68 E9        30.11F
THREE RIVERS*  CLOUDY    46  36  66 E12       30.12F

$$
OHZ001>008-015>018-024>025-300400-
NORTHWEST OHIO

CITY           SKY/WX    TMP DP  RH WIND       PRES   REMARKS
WAUSEON*       CLOUDY    46  34  61 E8        30.17R
DEFIANCE       CLOUDY    45  33  63 E10       30.14R
FINDLAY        CLOUDY    47  32  56 E12       30.11S
TOLEDO EXPRESS CLOUDY    46  32  58 E12       30.16R
TOLEDO METCALF CLOUDY    47  33  58 E8        30.17R
LIMA           CLOUDY    46  34  62 E15       30.07F

$$
AND FOR LAKE MICHIGAN COASTAL AND OPEN LAKE BUOY OBSERVATIONS

STATION/POSITION TEMP    WIND        PRES    VSBY  WAVE
                 AIR SEA DIR/SP/G                  HT/PER
                 (F)     (DEG/KT/KT) (MB)    (MI)  (FT/S)
CALUMET HARBOR    43      40/ 11/ 14 1018.1F
MICHIGAN CITY     47      60/ 12/ 16   N/A
BURNS HARBOR      47      70/ 17/ 19 1018.3F

$$
&&




USA.gov is the U.S. government's official web portal to all federal, state and local government web resources and services.